Jordan Harbour

*Note: All times are displayed in the local standard time of the station location.
**Rain - Equipment is designed to accurately record liquid precipitation; under conditions when precipitation is not in liquid form, the data displayed may not properly reflect rainfall values.

Date Max Temp
(°C)
Min Temp
(°C)
Avg Temp
(°C)
Rain (mm) Avg RH (%)
Fri, Feb 15, 2019 4.7 -3.8 1.1 2.2 77.2
Thu, Feb 14, 2019 2.6 -3.9 -1.1 0.0 77.8
Wed, Feb 13, 2019 1.8 -4.2 -2.1 0.4 78.2
Tue, Feb 12, 2019 2.6 -4.7 -1.9 16.6 87.9
Mon, Feb 11, 2019 -1.5 -4.2 -2.9 0.0 74.3
Sun, Feb 10, 2019 -2.8 -8.6 -5.4 0.0 71.5
Sat, Feb 09, 2019 -3.7 -9.5 -6.6 0.0 65.3
DateTime Avg Temp (°C) Rain (mm) RH (%)
Sat, Feb 16, 2019 16:00 -1.6 0.0 60.7
Sat, Feb 16, 2019 15:00 -1.8 0.0 62.7
Sat, Feb 16, 2019 14:00 -2.0 0.0 63.0
Sat, Feb 16, 2019 13:00 -2.3 0.0 64.2
Sat, Feb 16, 2019 12:00 -2.8 0.0 64.7
Sat, Feb 16, 2019 11:00 -3.0 0.0 66.6
Sat, Feb 16, 2019 10:00 -3.3 0.0 67.1
Sat, Feb 16, 2019 09:00 -3.5 0.0 66.0
Sat, Feb 16, 2019 08:00 -4.0 0.0 67.2
Sat, Feb 16, 2019 07:00 -3.7 0.0 72.4
Sat, Feb 16, 2019 06:00 -2.9 0.0 70.5
Sat, Feb 16, 2019 05:00 -3.0 0.0 79.4
Sat, Feb 16, 2019 04:00 -3.1 0.0 78.3
Sat, Feb 16, 2019 03:00 -3.3 0.0 77.4
Sat, Feb 16, 2019 02:00 -3.2 0.0 74.3
Sat, Feb 16, 2019 01:00 -3.5 0.0 73.2
Sat, Feb 16, 2019 00:00 -3.6 0.0 71.4
Fri, Feb 15, 2019 23:00 -3.7 0.0 70.2
Fri, Feb 15, 2019 22:00 -3.5 0.0 69.7
Fri, Feb 15, 2019 21:00 -3.0 0.0 67.3
Fri, Feb 15, 2019 20:00 -2.1 0.0 68.9
Fri, Feb 15, 2019 19:00 -1.6 0.0 66.7
Fri, Feb 15, 2019 18:00 -1.0 0.0 66.4
Fri, Feb 15, 2019 17:00 -0.2 0.0 67.7
Fri, Feb 15, 2019 16:00 0.2 0.0 69.7
Fri, Feb 15, 2019 15:00 0.4 0.0 73.5
Fri, Feb 15, 2019 14:00 1.6 0.0 71.1
Fri, Feb 15, 2019 13:00 2.6 0.0 64.8
Fri, Feb 15, 2019 12:00 3.0 0.0 69.1
Fri, Feb 15, 2019 11:00 3.5 0.0 75.6
Fri, Feb 15, 2019 10:00 4.5 0.0 83.8
Fri, Feb 15, 2019 09:00 4.4 0.0 90.0
Fri, Feb 15, 2019 08:00 4.6 0.0 90.2
Fri, Feb 15, 2019 07:00 4.4 0.0 91.8
Fri, Feb 15, 2019 06:00 4.4 1.0 92.5
Fri, Feb 15, 2019 05:00 4.5 0.4 89.9
Fri, Feb 15, 2019 04:00 4.3 0.6 82.7
Fri, Feb 15, 2019 03:00 2.2 0.2 83.2
Fri, Feb 15, 2019 02:00 0.4 0.0 87.7
Fri, Feb 15, 2019 01:00 0.1 0.0 88.5
Fri, Feb 15, 2019 00:00 0.1 0.0 87.7
Thu, Feb 14, 2019 23:00 -0.2 0.0 88.1
Thu, Feb 14, 2019 22:00 -0.7 0.0 90.0
Thu, Feb 14, 2019 21:00 -0.8 0.0 89.3
Thu, Feb 14, 2019 20:00 -1.1 0.0 89.5
Thu, Feb 14, 2019 19:00 -0.7 0.0 88.6
Thu, Feb 14, 2019 18:00 0.5 0.0 82.3
Thu, Feb 14, 2019 17:00 0.9 0.0 76.1


asterix Register now to access more data! asterix